Regional Weather Roundup
Issued by NWS Albany, NY

Home | Current Version | Previous Version | Graphics & Text | Print | Product List | Glossary On
Versions: 1 2 3 4 5 6 7 8 9 10 11 12 13 14 15 16 17 18 19 20 21 22 23 24 25 26 27 28 29 30 31 32 33 34 35 36 37 38 39 40 41 42 43 44 45 46 47 48 49 50
000
ASUS41 KALY 311610
RWRALY

NEW YORK STATE HOURLY WEATHER ROUNDUP
NATIONAL WEATHER SERVICE ALBANY NY
1200 PM EDT SUN AUG 31 2014

NOTE: "FAIR" INDICATES FEW OR NO CLOUDS BELOW 12,000 FEET WITH NO
SIGNIFICANT WEATHER AND/OR NO OBSTRUCTIONS TO VISIBILITY.

NYZ032-033-038>043-046>054-057>066-NYZ062>081-311700-
EAST


CITY           SKY/WX    TMP DP  RH WIND       PRES   REMARKS
ALBANY         LGT RAIN  76  68  76 S7        30.03S
GLENS FALLS    CLOUDY    75  67  76 S12       30.01S
POUGHKEEPSIE   CLOUDY    76  68  76 SW5       30.05
NEWBURGH       CLOUDY    73  68  83 CALM      30.10S
MONTGOMERY     CLOUDY    75  69  81 SW8       30.06F
WHITE PLAINS   CLOUDY    79  71  76 VRB5      30.07F
ISLIP          PTSUNNY   79  72  79 S12       30.07F
NEW YORK CITY  PTSUNNY   84  70  62 SW14G21   30.05F
CENTRAL PARK   MOSUNNY   84  70  62 VRB3      30.08F
$$

NYZ005>009-017-018-044>046-055-056-311700-
CENTRAL


CITY           SKY/WX    TMP DP  RH WIND       PRES   REMARKS
FULTON         CLOUDY    76  70  82 S12       29.97F
SYRACUSE       LGT RAIN  76  71  85 S7        29.99S
ROME           LGT RAIN  73  71  93 S3        30.02S FOG
ELMIRA         RAIN      74  71  91 CALM      30.02F FOG
BINGHAMTON     LGT RAIN  71  70  96 S8        30.06F FOG
MONTICELLO     CLOUDY    72  70  94 S3        30.10F
$$

NYZ026>034-041>043-311700-
NORTH


CITY           SKY/WX    TMP DP  RH WIND       PRES   REMARKS
WATERTOWN      CLOUDY    77  67  71 S14G21    29.93S
FORT DRUM      NOT AVBL
MASSENA        LGT RAIN  73  71  93 SW12      29.91S
SARANAC LAKE   LGT RAIN  70  66  87 MISG      29.98S
PLATTSBURGH    CLOUDY    72  67  84 S10       29.92F
$$

NYZ001>004-010>016-019>021-311700-
WEST


CITY           SKY/WX    TMP DP  RH WIND       PRES   REMARKS
NIAGARA FALLS  CLOUDY    75  68  78 SW15      29.95S
BUFFALO        CLOUDY    74  67  78 SW15G25   29.97F
DUNKIRK        CLOUDY    72  69  90 S9        29.99S
JAMESTOWN      CLOUDY    66  66 100 SW8       30.04S
WELLSVILLE     LGT RAIN  70  67  90 SW8       30.08F
ROCHESTER      CLOUDY    75  69  81 SW12      29.96F
PENN YAN       LGT RAIN  73  70  90 S7        30.02S FOG
$$

             KEY
       WCI = WIND CHILL INDEX
       VSB = VISIBILITY
       HX  = HEAT INDEX
$$



USA.gov is the U.S. government's official web portal to all federal, state and local government web resources and services.